GW0870 Weather Reports


time (UTC)temp
C
wind
direction
speed
KPH
gust
KPH
rain 1hr
cm
rain 24hr
cm
rain mn
cm
humidity
%
barometer
mb
20260903221555 35 0 0.0 1.6 0.00 0.00 0.00 53 1015.8
20260903214553 35 0 0.0 3.2 0.00 0.00 0.00 56 1015.8
20260903213110 35 0 0.0 3.2 0.00 0.00 0.00 52 1015.9
20260903211556 35 206 0.0 6.4 0.00 0.00 0.00 52 1016.0
20260903210058 34 32 1.6 6.4 0.00 0.00 0.00 54 1016.1
20260903204600 34 0 0.0 3.2 0.00 0.00 0.00 54 1016.1
20260903203058 34 0 0.0 4.8 0.00 0.00 0.00 52 1016.2
20260903201554 35 0 0.0 3.2 0.00 0.00 0.00 48 1016.2
20260903200056 36 0 0.0 9.7 0.00 0.00 0.00 46 1016.3
20260903194601 36 118 1.6 4.8 0.00 0.00 0.00 45 1016.5
20260903193057 36 228 0.0 4.8 0.00 0.00 0.00 45 1016.7
20260903191554 37 120 1.6 6.4 0.00 0.00 0.00 45 1016.9
20260903190054 36 102 1.6 9.7 0.00 0.00 0.00 49 1017.0
20260903184552 36 148 0.0 1.6 0.00 0.00 0.00 46 1017.1
20260903183052 36 165 0.0 4.8 0.00 0.00 0.00 49 1017.3
20260903181556 37 53 1.6 4.8 0.00 0.00 0.00 48 1017.5
20260903180109 35 0 1.6 6.4 0.00 0.00 0.00 53 1017.5
20260903174555 35 0 0.0 1.6 0.00 0.00 0.00 58 1017.8
20260903173052 35 0 0.0 4.8 0.00 0.00 0.00 51 1018.0
20260903171558 36 33 0.0 8.0 0.00 0.00 0.00 51 1018.1
20260903170058 35 244 0.0 9.7 0.00 0.00 0.00 55 1018.4
20260903164604 35 104 0.0 1.6 0.00 0.00 0.00 55 1018.4
20260903163114 35 233 1.6 4.8 0.00 0.00 0.00 53 1018.7
20260903161558 35 329 0.0 3.2 0.00 0.00 0.00 55 1018.7
20260903160053 34 163 0.0 3.2 0.00 0.00 0.00 55 1018.8
20260903154550 34 155 0.0 3.2 0.00 0.00 0.00 60 1018.9
20260903153103 34 0 0.0 1.6 0.00 0.00 0.00 60 1018.9
20260903151602 33 0 0.0 1.6 0.00 0.00 0.00 63 1019.0
20260903150055 32 21 0.0 1.6 0.00 0.00 0.00 65 1018.9
20260903144559 32 0 0.0 3.2 0.00 0.00 0.00 69 1018.8
20260903143057 31 54 0.0 3.2 0.00 0.00 0.00 68 1018.9
20260903141553 31 0 0.0 1.6 0.00 0.00 0.00 72 1018.8
20260903140057 30 0 0.0 1.6 0.00 0.00 0.00 74 1018.8
20260903134612 30 0 0.0 1.6 0.00 0.00 0.00 77 1018.8
20260903133058 28 0 0.0 1.6 0.00 0.00 0.00 80 1018.8
20260903131557 27 0 0.0 1.6 0.00 0.00 0.00 86 1018.8
20260903124606 23 0 0.0 0.0 0.00 0.00 0.00 95 1019.0
20260903123053 23 0 0.0 0.0 0.00 0.00 0.00 95 1019.0
20260903121557 22 0 0.0 0.0 0.00 0.00 0.00 95 1018.9
20260903120117 22 0 0.0 0.0 0.00 0.00 0.00 95 1018.8
20260903114602 22 0 0.0 0.0 0.00 0.00 0.00 95 1018.8
20260903113053 21 0 0.0 0.0 0.00 0.00 0.00 94 1018.6
20260903111553 21 0 0.0 0.0 0.00 0.00 0.00 94 1018.6
20260903110103 21 0 0.0 0.0 0.00 0.00 0.00 94 1018.4
20260903104553 21 0 0.0 0.0 0.00 0.00 0.00 94 1018.2
20260903103056 21 0 0.0 0.0 0.00 0.00 0.00 94 1018.1
20260903101551 21 0 0.0 0.0 0.00 0.00 0.00 94 1018.0
20260903100052 21 0 0.0 0.0 0.00 0.00 0.00 94 1017.9
20260903094552 22 0 0.0 0.0 0.00 0.00 0.00 94 1017.9
20260903093056 22 0 0.0 0.0 0.00 0.00 0.00 94 1017.8
20260903091553 22 0 0.0 0.0 0.00 0.00 0.00 94 1017.9
20260903084554 22 0 0.0 1.6 0.00 0.00 0.00 94 1017.7
20260903083056 22 0 0.0 0.0 0.00 0.00 0.00 93 1017.7
20260903081550 22 0 0.0 0.0 0.00 0.00 0.00 93 1017.7
20260903074618 22 0 0.0 0.0 0.00 0.00 0.00 93 1017.4
20260903073059 22 0 0.0 0.0 0.00 0.00 0.00 93 1017.4
20260903071605 22 0 0.0 0.0 0.00 0.00 0.00 93 1017.3
20260903070057 22 0 0.0 0.0 0.00 0.00 0.00 93 1017.3
20260903064552 22 0 0.0 0.0 0.00 0.00 0.00 93 1017.2
20260903063105 23 0 0.0 0.0 0.00 0.00 0.00 93 1017.1
20260903061604 23 0 0.0 0.0 0.00 0.00 0.00 93 1017.3
20260903060100 23 0 0.0 0.0 0.00 0.00 0.00 93 1017.4
20260903054602 23 0 0.0 0.0 0.00 0.00 0.00 92 1017.3
20260903053101 23 0 0.0 0.0 0.00 0.00 0.00 92 1017.3
20260903051600 23 0 0.0 0.0 0.00 0.00 0.00 92 1017.3
20260903044603 23 0 0.0 0.0 0.00 0.00 0.00 92 1017.5
20260903043048 23 0 0.0 1.6 0.00 0.00 0.00 92 1017.5
20260903041610 23 0 0.0 0.0 0.00 0.00 0.00 92 1017.4
20260903040056 23 0 0.0 0.0 0.00 0.00 0.00 92 1017.5
20260903034551 24 0 0.0 0.0 0.00 0.00 0.00 91 1017.5
20260903033057 24 0 0.0 0.0 0.00 0.00 0.00 91 1017.9
20260903031556 24 0 0.0 0.0 0.00 0.00 0.00 90 1018.1
20260903030054 24 0 0.0 0.0 0.00 0.00 0.00 90 1018.2
20260903024600 25 0 0.0 0.0 0.00 0.00 0.00 90 1018.2
20260903023057 25 0 0.0 0.0 0.00 0.00 0.00 89 1018.5
20260903021555 25 0 0.0 0.0 0.00 0.00 0.00 88 1018.5
20260903020055 25 0 0.0 0.0 0.00 0.00 0.00 88 1018.5
20260903014613 25 0 0.0 0.0 0.00 0.00 0.00 87 1018.3
20260903013102 26 0 0.0 0.0 0.00 0.00 0.00 86 1018.0
20260903011614 26 0 0.0 0.0 0.00 0.00 0.00 85 1017.8
20260903010108 26 0 0.0 0.0 0.00 0.00 0.00 85 1017.6
20260903004550 27 0 0.0 0.0 0.00 0.00 0.00 83 1017.5
20260903003113 27 0 0.0 0.0 0.00 0.00 0.00 81 1017.4
20260903001601 28 0 0.0 0.0 0.00 0.00 0.00 77 1017.4
20260903000052 28 0 0.0 0.0 0.00 0.00 0.00 76 1017.4
20260902234554 30 0 0.0 0.0 0.00 0.00 0.00 72 1017.3
20260902233054 31 0 0.0 0.0 0.00 0.00 0.00 69 1017.3
20260902231552 32 0 0.0 0.0 0.00 0.00 0.00 65 1017.3
20260902230059 33 0 0.0 0.0 0.00 0.00 0.00 59 1017.2
20260902224552 35 0 0.0 1.6 0.00 0.00 0.00 51 1017.1
20260902223056 36 0 0.0 0.0 0.00 0.00 0.00 48 1017.1